Regional Weather Roundup
Issued by NWS

Home | Current Version | Previous Version | Text Only | Print | Product List | Glossary Off
Versions: 1 2 3 4 5 6 7 8 9 10 11 12 13 14 15 16 17 18 19 20 21 22 23 24 25 26 27 28 29 30 31 32 33 34 35 36 37 38 39 40 41 42 43 44 45 46 47 48 49 50

000
ASUS43 KLOT 301000
RWRIL

ILLINOIS REGIONAL WEATHER ROUNDUP
NATIONAL WEATHER SERVICE CHICAGO/ROMEOVILLE IL
500 AM CDT TUE JUN 30 2015

NOTE: "FAIR" INDICATES FEW OR NO CLOUDS BELOW 12,000 FEET WITH NO
SIGNIFICANT WEATHER AND/OR OBSTRUCTIONS TO VISIBILITY.

* THESE STATIONS ARE NOT UNDER NWS QUALITY CONTROL. THEY ALSO MAY NOT
  REPORT WEATHER SUCH AS PRECIPITATION OR FOG.

ILZ001-002-007-009-015-016-024-301100-
NORTHWEST ILLINOIS

CITY           SKY/WX    TMP DP  RH WIND       PRES   REMARKS
MOLINE         CLEAR     62  60  93 CALM      29.81R
STERLING*      CLEAR     61  59  94 W5        29.81S VSB 1
$$

ILZ003-004-008-010-011-017-018-301100-
NORTH CENTRAL ILLINOIS

CITY           SKY/WX    TMP DP  RH WIND       PRES   REMARKS
ROCKFORD       PTCLDY    60  58  92 W3        29.80F
$$

ILZ005-006-012>014-019>023-301100-
NORTHEAST ILLINOIS

CITY           SKY/WX    TMP DP  RH WIND       PRES   REMARKS
CHICAGO-OHARE  MOCLDY    63  60  90 W6        29.77R
CHICAGO-MIDWAY CLOUDY    66  63  90 W7        29.77R FOG
AURORA         MOCLDY    60  57  89 W6        29.79S
WAUKEGAN       MOCLDY    60  59  96 W3        29.76S
DUPAGE AIRPORT MOCLDY    61  59  93 NW6       29.77S
WHEELING       MOCLDY    63  59  87 NW6       29.78R
NORTHERLY ISL    N/A     65  62  90 W5          N/A
$$

LMZ740>746-301100-
SOUTHERN LAKE MICHIGAN

STATION/POSITION SKY/WX   TEMP    WIND        PRES    VSBY  WAVE
                          AIR SEA DIR/SP/G                  HT/PER
                          (F)     (DEG/KT/KT) (MB)    (MI)  (FT/S)
HARRISON CRIB              66     260/  7/  8   N/A
BURNHAM HARBOR             66     260/  5/  8   N/A
CALUMET HARBOR             65     190/  2/  3   N/A
BURNS HARBOR               65     220/  3/  5 1008.8S
MICHIGAN CITY              63     150/  5/  7   N/A
MICHIGAN CITY 6N           64 64  180/  4/  6   N/A           1
ST. JOSEPH                 62 63                N/A           1
$$

ILZ025>027-034>036-040-047-049-050-058-095>099-301100-
WEST-CENTRAL ILLINOIS

CITY           SKY/WX    TMP DP  RH WIND       PRES   REMARKS
QUINCY         CLEAR     65  63  93 SW5       29.86S
$$

ILZ028>032-037-038-041>044-048-051>054-059>061-301100-
CENTRAL ILLINOIS

CITY           SKY/WX    TMP DP  RH WIND       PRES   REMARKS
DECATUR        PTCLDY    68  65  90 W5        29.83S
PEORIA         MOCLDY    66  62  87 CALM      29.82S
SPRINGFIELD    PTCLDY    68  65  90 SW8       29.83F
TAYLORVILLE    NOT AVBL
$$

ILZ033-039-045-046-055>057-062-063-301100-
EAST-CENTRAL ILLINOIS

CITY           SKY/WX    TMP DP  RH WIND       PRES   REMARKS
CHAMPAIGN      PTCLDY    65  63  93 SW6       29.82S FOG
MATTOON        CLEAR     67  64  90 W6        29.83S
$$

ILZ079-100>102-301100-
SOUTHWEST ILLINOIS

CITY           SKY/WX    TMP DP  RH WIND       PRES   REMARKS
CAHOKIA*       CLEAR     69  66  90 SW5       29.86S
$$

ILZ064>066-069>071-074>076-080>082-084>086-088>090-092>094-301100-
SOUTH-CENTRAL ILLINOIS

CITY           SKY/WX    TMP DP  RH WIND       PRES   REMARKS
CARBONDALE     PTCLDY    68  66  93 S3        29.88R
MT. VERNON     CLEAR     64  61  88 CALM      29.88R
$$

ILZ067-068-072-073-078-083-087-091-301100-
SOUTHEAST ILLINOIS

CITY           SKY/WX    TMP DP  RH WIND       PRES   REMARKS
LAWRENCEVILLE  PTCLDY    66  63  90 CALM      29.85S
$$

ABBREVIATIONS USED IN REMARKS
   TC - TEMPERATURE IN CELSIUS
  WCI - WIND CHILL INDEX
   HX - HEAT INDEX
  VSB - VISIBILITY
$$



USA.gov is the U.S. government's official web portal to all federal, state and local government web resources and services.